Weather History for Pensacola NAS, FL

Change the Weather History Date:

Thursday, December 6, 2012

  Actual Average Record
Temperature  
Mean Temperature 64 °F -  
Max Temperature 73 °F 64 °F 78 °F (1998)
Min Temperature 55 °F 47 °F 30 °F (1997)
Degree Days  
Heating Degree Days 1    
Growing Degree Days 14 (Base 50)    
Moisture  
Dew Point 59 °F    
Average Humidity 93    
Maximum Humidity 100    
Minimum Humidity 73    
Precipitation  
Precipitation 0.00 in - - ()
Sea Level Pressure  
Sea Level Pressure 30.01 in    
Wind  
Wind Speed 4 mph (ENE)    
Max Wind Speed 14 mph    
Max Gust Speed -    
Visibility 7 miles    
Events Fog , Rain    
Averages and records for this station are not official NWS values.
T = Trace of Precipitation, MM = Missing Value Source: NWS Daily Summary

Daily Weather History Graph

Daily Weather History Graph

Search for Another Location

Airport:

Trip Planner

Search our weather history database for the weather conditions in past years. The results will help you decide how hot, cold, wet, or windy it might be!

Date:

Astronomy

Dec. 06, 2012 Rise Set
Actual Time 6:32 AM CST 4:48 PM CST
Civil Twilight 6:06 AM CST 5:14 PM CST
Nautical Twilight 5:36 AM CST 5:44 PM CST
Astronomical Twilight 5:07 AM CST 6:13 PM CST
Moon No Moon Rise 11:48 AM CST (12/6)
Length of Visible Light 11h 08m
Length of Day
10h 15m
Waning Gibbous, 49% of the Moon is Illuminated
Dec 6
Waning Gibbous
Dec 13
New
Dec 19
First Quarter
Dec 28
Full
Jan 4
Last Quarter

Hourly Weather History & Observations

Time (CST) Temp. Dew Point Humidity Pressure Visibility Wind Dir Wind Speed Gust Speed Precip Events Conditions
12:56 AM 57.9 °F 57.9 °F 100% 30.05 in 10.0 mi NNW 3.5 mph - 0.00 in   Clear
1:56 AM 55.0 °F 55.0 °F 100% 30.04 in 6.0 mi Calm Calm - 0.00 in   Clear
2:03 AM 55.4 °F 55.4 °F 100% 30.03 in 1.8 mi Calm Calm - N/A   Clear
2:13 AM 57.2 °F 55.4 °F 94% 30.03 in 3.0 mi Calm Calm - N/A   Clear
2:17 AM 55.4 °F 55.4 °F 100% 30.03 in 1.5 mi Calm Calm - 0.00 in Rain Light Rain
2:31 AM 57.2 °F 57.2 °F 100% 30.02 in 3.0 mi East 5.8 mph - 0.00 in   Clear
2:56 AM 57.0 °F 57.0 °F 100% 30.02 in 10.0 mi ENE 5.8 mph - 0.00 in   Clear
3:56 AM 55.9 °F 55.9 °F 100% 30.01 in 8.0 mi North 3.5 mph - 0.00 in   Clear
4:56 AM 57.0 °F 57.0 °F 100% 30.01 in 10.0 mi NE 4.6 mph - 0.00 in   Clear
5:56 AM 57.0 °F 57.0 °F 100% 30.03 in 10.0 mi NE 5.8 mph - 0.00 in   Mostly Cloudy
6:56 AM 57.9 °F 55.9 °F 93% 30.04 in 10.0 mi NE 4.6 mph - N/A   Scattered Clouds
7:56 AM 62.1 °F 57.9 °F 86% 30.05 in 10.0 mi NE 4.6 mph - N/A   Scattered Clouds
8:56 AM 64.9 °F 59.0 °F 81% 30.06 in 10.0 mi East 8.1 mph - N/A   Scattered Clouds
9:56 AM 71.1 °F 62.1 °F 73% 30.05 in 10.0 mi East 6.9 mph - N/A   Scattered Clouds
10:56 AM 72.0 °F 63.0 °F 73% 30.04 in 10.0 mi East 9.2 mph - N/A   Scattered Clouds
11:56 AM 73.0 °F 64.0 °F 73% 30.01 in 10.0 mi East 13.8 mph - N/A   Scattered Clouds
12:56 PM 72.0 °F 63.0 °F 73% 29.99 in 10.0 mi ESE 12.7 mph - N/A   Scattered Clouds
1:56 PM 72.0 °F 63.0 °F 73% 29.98 in 10.0 mi SE 12.7 mph - N/A   Scattered Clouds
2:56 PM 70.0 °F 62.1 °F 76% 29.98 in 10.0 mi ESE 10.4 mph - N/A   Scattered Clouds
3:56 PM 69.1 °F 62.1 °F 78% 29.98 in 10.0 mi ESE 8.1 mph - N/A   Scattered Clouds
4:56 PM 66.0 °F 63.0 °F 90% 29.98 in 10.0 mi ESE 4.6 mph - N/A   Scattered Clouds
5:56 PM 63.0 °F 62.1 °F 97% 29.99 in 10.0 mi Calm Calm - N/A   Partly Cloudy
6:56 PM 60.1 °F 60.1 °F 100% 29.99 in 10.0 mi Calm Calm - N/A   Clear
7:56 PM 60.1 °F 60.1 °F 100% 29.99 in 10.0 mi Calm Calm - N/A   Partly Cloudy
8:56 PM 60.1 °F 60.1 °F 100% 29.99 in 10.0 mi Calm Calm - N/A   Partly Cloudy
9:56 PM 55.9 °F 55.9 °F 100% 29.99 in 7.0 mi Calm Calm - 0.00 in   Clear
10:12 PM 57.2 °F 57.2 °F 100% 29.99 in 1.2 mi Calm Calm - N/A   Clear
10:21 PM 57.2 °F 57.2 °F 100% 29.99 in 0.5 mi Calm Calm - N/A Fog Fog
10:36 PM 57.2 °F 57.2 °F 100% 29.98 in 0.8 mi Calm Calm - N/A   Mist
10:42 PM 57.2 °F 55.4 °F 94% 29.98 in 1.0 mi Calm Calm - N/A   Scattered Clouds
10:56 PM 57.0 °F 57.0 °F 100% 29.99 in 0.8 mi Calm Calm - N/A   Scattered Clouds
11:42 PM 55.4 °F 55.4 °F 100% 29.97 in 0.5 mi East 3.5 mph - N/A Fog Fog
11:52 PM 59.0 °F 59.0 °F 100% 29.97 in 1.2 mi ENE 4.6 mph - N/A   Partly Cloudy
11:56 PM 57.9 °F 57.9 °F 100% 29.97 in 4.0 mi ENE 3.5 mph - N/A   Partly Cloudy